								Orbital elements:
2012 FV23                                                Earth MOID = 0.0061 AU
Epoch 2012 Mar. 14.0 TT = JDT 2456000.5                 MPC
M 342.40672              (2000.0)            P               Q
n   0.50910901     Peri.  132.94645     -0.85426619     +0.51952968
a   1.5533245      Node    78.36168     -0.48208610     -0.77892629
e   0.3684451      Incl.    1.04356     -0.19447950     -0.35123033
P   1.94           H   25.4           G...                         
							 
							
						 
						
					
				 | 
				
					
						Blobrana
					 | 
				
				
					
						0
					 | 
				
				
				
					
						
					 | 
				
				
					
						
					 | 
				
			
		
			
			
				
				
					
						 
					 | 
				
				
				
					
						
					 | 
				
				
				
					
					
					Asteroid 2012 FX23
					
					
					
					
						
					
					
						
							(Preview)
						
						
						
						
							
						
							
								Orbital elements:
2012 FX23                                                Earth MOID = 0.0536 AU
Epoch 2012 Mar. 14.0 TT = JDT 2456000.5                 MPC
M 349.61474              (2000.0)            P               Q
n   0.35496573     Peri.   22.64282     -0.90071055     +0.43428749
a   1.9755064      Node   183.15894     -0.42239188     -0.88127124
e   0.4764276      Incl.   11.21531     -0.10151651     -0.18642796
P   2.78           H   26.2...                                    
							 
							
						 
						
					
				 | 
				
					
						Blobrana
					 | 
				
				
					
						0
					 | 
				
				
				
					
						
					 | 
				
				
					
						
					 | 
				
			
		
			
			
				
				
					
						 
					 | 
				
				
				
					
						
					 | 
				
				
				
					
					
					Asteroid 2012 FS23
					
					
					
					
						
					
					
						
							(Preview)
						
						
						
						
							
						
							
								Orbital elements:
2012 FS23                                                Earth MOID = 0.1574 AU
Epoch 2012 Mar. 14.0 TT = JDT 2456000.5                 MPC
M 291.25896              (2000.0)            P               Q
n   0.84113890     Peri.  318.26166     +0.68501820     +0.72652750
a   1.1114525      Node   354.16947     -0.44393901     +0.35759318
e   0.5936510      Incl.   32.06118     -0.57764022     +0.58675796
P   1.17           H   21....                                    
							 
							
						 
						
					
				 | 
				
					
						Blobrana
					 | 
				
				
					
						0
					 | 
				
				
				
					
						
					 | 
				
				
					
						
					 | 
				
			
		
			
			
				
				
					
						 
					 | 
				
				
				
					
						
					 | 
				
				
				
					
					
					Asteroid 2012 FU23
					
					
					
					
						
					
					
						
							(Preview)
						
						
						
						
							
						
							
								Orbital elements:
2012 FU23                                                Earth MOID = 0.0065 AU
Epoch 2012 Mar. 14.0 TT = JDT 2456000.5                 MPC
M 326.05532              (2000.0)            P               Q
n   0.53551422     Peri.   95.71954     +0.12341697     +0.99235223
a   1.5018344      Node   181.37616     -0.94420134     +0.11671381
e   0.5897714      Incl.    5.50230     -0.30537205     +0.04018629
P   1.84           H   27.6           G...                         
							 
							
						 
						
					
				 | 
				
					
						Blobrana
					 | 
				
				
					
						0
					 | 
				
				
				
					
						
					 | 
				
				
					
						
					 | 
				
			
		
			
			
				
				
					
						 
					 | 
				
				
				
					
						
					 | 
				
				
				
					
					
					Asteroid 2012 FD23
					
					
					
					
						
					
					
						
							(Preview)
						
						
						
						
							
						
							
								Orbital elements:
2012 FD23                                                Earth MOID = 0.0758 AU
Epoch 2012 Mar. 14.0 TT = JDT 2456000.5                 MPC
M 339.18642              (2000.0)            P               Q
n   0.30876098     Peri.   11.08977     -0.26389576     +0.95444742
a   2.1679759      Node   243.73312     -0.89641461     -0.29598012
e   0.5851180      Incl.    8.93295     -0.35608970     +0.03776091
P   3.19           H   20.0           G...                         
							 
							
						 
						
					
				 | 
				
					
						Blobrana
					 | 
				
				
					
						0
					 | 
				
				
				
					
						
					 | 
				
				
					
						
					 |